CT1OY Oeiras PT current weather conditions

sailwx.info

Wind from 063 at 1 knots

Air temperature 27.8° C
Dewpoint 12.9° C

Last reported at 2014-Oct-24 14:13 UTC.
Time now 2014-Oct-24 15:32 UTC

Location: N 38°44' W 009°17'.
View on Google Maps.

See reports from other nearby stations

  
Tides and Currents Weather Stations Pressure Air Temp Water Temp Dewpoint Dewpoint Depression Visibility Wind Speed Wind Dir Waves Ship Positions
date/time (UTC)wind fromknots sea level pressurealtimeterstation pressurevisibilityair tempwater tempwave heightnotes
2014-Oct-24 14:13 063 1 27.8
2014-Oct-24 14:03 044 27.8
2014-Oct-24 13:33 331 0 27.8
2014-Oct-24 13:23 087 28.3
2014-Oct-24 13:03 016 0 27.8
2014-Oct-24 12:53 108 3 27.8
2014-Oct-24 12:43 031 0 27.2
2014-Oct-24 12:33 073 1 27.2
2014-Oct-24 12:23 062 1 26.7
2014-Oct-24 12:03 352 1 26.1
2014-Oct-24 11:43 053 26.1
2014-Oct-24 11:33 049 0 26.1
2014-Oct-24 11:13 046 2 25.0
2014-Oct-24 11:03 036 2 24.4
2014-Oct-24 10:53 183 24.4
2014-Oct-24 10:43 025 2 23.9
2014-Oct-24 10:33 037 23.9
2014-Oct-24 10:13 085 2 23.3
2014-Oct-24 10:03 018 23.3
2014-Oct-24 09:53 082 23.3
2014-Oct-24 09:33 056 1 22.8
2014-Oct-24 09:13 088 3 23.3
2014-Oct-24 09:03 272 22.8
2014-Oct-24 08:53 038 3 22.8
2014-Oct-24 08:43 025 1 22.2
2014-Oct-24 08:33 040 0 22.2
2014-Oct-24 08:13 090 1 21.7
2014-Oct-24 08:03 063 1 21.1
2014-Oct-24 07:53 060 1 21.1
2014-Oct-24 07:43 046 20.6
2014-Oct-24 07:33 021 1 20.6
2014-Oct-24 07:23 041 0 20.0
2014-Oct-24 07:13 063 20.0
2014-Oct-24 07:03 079 20.0
2014-Oct-24 06:53 026 0 19.4
2014-Oct-24 06:33 359 1 19.4
2014-Oct-24 06:23 103 19.4
2014-Oct-24 06:03 077 0 20.0
2014-Oct-24 05:53 003 20.0
2014-Oct-24 05:43 026 1 20.0
2014-Oct-24 05:33 038 0 20.0
2014-Oct-24 05:23 098 20.6
2014-Oct-24 05:03 056 0 20.6
2014-Oct-24 04:53 041 20.6
2014-Oct-24 04:43 079 2 20.6
2014-Oct-24 04:33 103 0 21.1
2014-Oct-24 04:23 058 21.1
2014-Oct-24 04:03 059 1 21.1
2014-Oct-24 03:53 060 21.1
2014-Oct-24 03:43 041 0 21.7
2014-Oct-24 03:33 132 21.7
2014-Oct-24 03:23 051 1 22.2
2014-Oct-24 03:13 094 22.2
2014-Oct-24 03:03 073 0 22.2
2014-Oct-24 02:53 034 1 22.2
2014-Oct-24 02:43 060 0 22.2
2014-Oct-24 02:33 014 1 22.2
2014-Oct-24 02:23 060 6 22.2
2014-Oct-24 02:13 153 0 22.2
2014-Oct-24 02:03 075 22.2
2014-Oct-24 01:53 044 1 22.2
2014-Oct-24 01:43 109 0 22.2
2014-Oct-24 01:13 062 1 22.2
2014-Oct-24 01:03 071 22.2
2014-Oct-24 00:53 025 22.2
2014-Oct-24 00:43 052 1 22.8
2014-Oct-24 00:13 005 2 23.3
2014-Oct-24 00:03 073 0 23.9
2014-Oct-23 23:53 041 23.9
2014-Oct-23 23:43 041 2 23.9
2014-Oct-23 23:13 008 0 23.9
2014-Oct-23 23:03 070 1 23.9
2014-Oct-23 22:53 072 23.9
2014-Oct-23 22:43 038 6 23.9
2014-Oct-23 22:33 073 0 23.9
2014-Oct-23 22:13 360 23.9
2014-Oct-23 22:03 043 4 23.9
2014-Oct-23 21:43 053 0 23.3
2014-Oct-23 21:33 359 23.3
2014-Oct-23 21:23 344 23.3
2014-Oct-23 21:13 027 0 23.3
2014-Oct-23 21:03 071 23.3
2014-Oct-23 20:53 013 23.3
2014-Oct-23 20:43 036 23.3
2014-Oct-23 20:33 044 1 23.3
2014-Oct-23 20:23 273 23.3
2014-Oct-23 19:53 347 23.3
2014-Oct-23 19:33 023 23.3
2014-Oct-23 19:13 013 1 23.3
2014-Oct-23 19:03 304 0 23.3
2014-Oct-23 18:53 326 0 23.9
2014-Oct-23 18:13 339 24.4
2014-Oct-23 17:53 073 0 25.0
2014-Oct-23 17:43 003 0 25.6
2014-Oct-23 17:33 337 25.6
2014-Oct-23 17:23 028 4 26.1
2014-Oct-23 17:13 026 0 26.7
2014-Oct-23 17:03 352 0 27.2
2014-Oct-23 16:43 087 27.2
2014-Oct-23 16:33 352 27.2
2014-Oct-23 16:13 026 3 27.8
2014-Oct-23 16:03 082 1 27.8
2014-Oct-23 15:53 076 3 27.8
2014-Oct-23 15:43 018 27.8
2014-Oct-23 15:13 051 1 27.8
2014-Oct-23 14:53 043 1 27.8
2014-Oct-23 14:43 041 0 27.8
2014-Oct-23 14:23 061 0 27.8
2014-Oct-23 14:13 020 27.8
2014-Oct-23 14:03 063 0 27.8
2014-Oct-23 13:53 046 1 27.8
2014-Oct-23 13:43 036 3 27.8
2014-Oct-23 13:33 283 27.8
2014-Oct-23 13:13 061 0 27.8
2014-Oct-23 13:03 031 2 27.8
2014-Oct-23 12:43 070 2 27.2
2014-Oct-23 12:23 026 3 26.7
2014-Oct-23 12:13 019 26.1
2014-Oct-23 11:43 075 4 25.6
2014-Oct-23 11:23 053 25.0
2014-Oct-23 11:13 084 1 25.0
2014-Oct-23 10:33 037 1 23.9
2014-Oct-23 10:13 024 6 23.3
2014-Oct-23 09:43 044 3 22.8
2014-Oct-23 09:23 066 3 22.2
2014-Oct-23 09:13 064 3 22.2
2014-Oct-23 09:03 094 0 21.7
2014-Oct-23 08:53 091 0 21.7
2014-Oct-23 08:43 013 1 21.7
2014-Oct-23 08:33 027 3 21.7
2014-Oct-23 08:23 049 0 21.7
2014-Oct-23 07:33 072 1 21.1
2014-Oct-23 07:23 046 1 20.6
2014-Oct-23 07:03 084 20.6
2014-Oct-23 06:43 080 1 20.6
2014-Oct-23 06:33 032 1 20.6
2014-Oct-23 06:13 087 1 20.6
2014-Oct-23 06:03 058 1 20.6
2014-Oct-23 05:53 059 20.6
2014-Oct-23 05:23 030 1 21.1
2014-Oct-23 05:13 072 1 21.7
2014-Oct-23 05:03 078 0 21.7
2014-Oct-23 04:43 047 21.7
2014-Oct-23 04:23 079 0 22.2
2014-Oct-23 03:43 046 1 22.2
2014-Oct-23 03:33 058 1 22.8
2014-Oct-23 03:23 031 5 22.8
2014-Oct-23 03:13 044 22.8
2014-Oct-23 03:03 019 22.8
2014-Oct-23 02:23 051 2 gusting 10 23.3
2014-Oct-23 02:13 005 5 23.3
2014-Oct-23 02:03 072 23.3
2014-Oct-23 01:53 100 1 23.9
2014-Oct-23 01:43 059 1 23.9
2014-Oct-23 01:33 047 3 23.9
2014-Oct-23 01:13 061 0 24.4
2014-Oct-23 01:03 068 24.4
2014-Oct-23 00:43 010 24.4
2014-Oct-23 00:33 070 25.0
2014-Oct-23 00:13 034 25.0
2014-Oct-22 23:53 046 1 25.0
2014-Oct-22 22:53 049 25.6
2014-Oct-22 22:43 077 25.6
2014-Oct-22 22:23 046 0 25.6
2014-Oct-22 21:53 060 26.1
2014-Oct-22 21:43 025 26.1
2014-Oct-22 21:33 027 26.1
2014-Oct-22 21:13 012 25.6
2014-Oct-22 20:53 030 25.6
2014-Oct-22 20:43 009 25.6
2014-Oct-22 20:33 016 25.6
2014-Oct-22 20:23 027 25.0
2014-Oct-22 20:13 029 25.0
2014-Oct-22 20:03 360 0 25.0
2014-Oct-22 19:43 320 25.0
2014-Oct-22 19:33 023 25.6
2014-Oct-22 19:23 025 25.6
2014-Oct-22 19:13 053 25.6
2014-Oct-22 18:53 329 25.6
2014-Oct-22 18:23 344 26.1
2014-Oct-22 18:13 312 26.7
2014-Oct-22 17:33 347 27.8
2014-Oct-22 17:23 013 1 27.8
2014-Oct-22 17:13 360 0 27.8
2014-Oct-22 16:53 283 28.3
2014-Oct-22 16:43 263 28.9
2014-Oct-22 16:03 281 0 30.0
2014-Oct-22 15:53 290 2 30.6
2014-Oct-22 15:43 302 0 31.1
2014-Oct-22 15:33 287 31.7
2014-Oct-22 15:13 006 32.8
2014-Oct-22 15:03 012 32.8